Location: Cottbus
(51.7000°N, 14.3000°E)
Time: 22:40:41
(UTC+01:00)

ISS - Pass Details

Date: 30 January 2019
Orbit: 403 x 411 km, 51.6° (Epoch: 18 February)

Event Time Altitude Azimuth Distance (km) Brightness Sun altitude
Rises 19:01:24 0° 270° (W) 2,336 1.6 -20.7°
Reaches altitude 10° 19:03:29 10° 270° (W) 1,477 0.2 -21.0°
Enters shadow 19:06:22 65° 274° (W) 455 -3.5 -21.5°
